OK2ARM-12 Weather Reports


Display with metric or nautical units.
time (UTC)temp
F
wind
direction
speed
MPH
gust
MPH
rain 1hr
in
rain 24hr
in
rain mn
in
humidity
%
barometer
mb
20260831230006 64 0.0 0.0 0.00 0.00 0.00 56 1019.6
20260831225006 64 0.0 0.0 0.00 0.00 0.00 56 1019.5
20260831224006 64 0.0 0.0 0.00 0.00 0.00 56 1019.6
20260831223006 64 0.0 0.0 0.00 0.00 0.00 56 1019.6
20260831222006 64 0.0 0.0 0.00 0.00 0.00 55 1019.6
20260831221006 65 0.0 0.0 0.00 0.00 0.00 54 1019.6
20260831220006 64 0.0 0.0 0.00 0.00 0.00 55 1019.6
20260831213743 65 0.0 0.0 0.00 0.00 0.00 54 1019.2
20260831211519 65 0.0 0.0 0.00 0.00 0.00 53 1019.1
20260831210519 65 0.0 0.0 0.00 0.00 0.00 52 1019.2
20260831205519 65 0.0 0.0 0.00 0.00 0.00 52 1019.1
20260831203256 65 0.0 0.0 0.00 0.00 0.00 52 1018.5
20260831202256 65 0.0 0.0 0.00 0.00 0.00 52 1018.2
20260831201256 65 0.0 0.0 0.00 0.00 0.00 53 1018.1
20260831195031 65 0.0 0.0 0.00 0.00 0.00 53 1017.9
20260831194031 65 0.0 0.0 0.00 0.00 0.00 53 1017.7
20260831193031 65 0.0 0.0 0.00 0.00 0.00 53 1017.6
20260831192032 65 0.0 0.0 0.00 0.00 0.00 52 1017.6
20260831191031 65 0.0 0.0 0.00 0.00 0.00 52 1017.6
20260831190031 65 0.0 0.0 0.00 0.00 0.00 52 1017.5
20260831185031 66 0.0 0.0 0.00 0.00 0.00 52 1017.5
20260831184031 66 0.0 0.0 0.00 0.00 0.00 52 1017.5
20260831183031 66 0.0 0.0 0.00 0.00 0.00 51 1017.5
20260831182031 67 0.0 0.0 0.00 0.00 0.00 51 1017.2
20260831181031 67 0.0 0.0 0.00 0.00 0.00 51 1017.0
20260831174809 67 0.0 0.0 0.00 0.00 0.00 49 1016.9
20260831173807 68 0.0 0.0 0.00 0.00 0.00 47 1016.8
20260831172808 69 0.0 0.0 0.00 0.00 0.00 45 1016.7
20260831171807 70 0.0 0.0 0.00 0.00 0.00 44 1016.6
20260831170807 70 0.0 0.0 0.00 0.00 0.00 43 1016.7
20260831165807 70 0.0 0.0 0.00 0.00 0.00 42 1016.7
20260831164807 71 0.0 0.0 0.00 0.00 0.00 42 1016.7
20260831163807 71 0.0 0.0 0.00 0.00 0.00 41 1016.6
20260831162807 71 0.0 0.0 0.00 0.00 0.00 40 1016.6
20260831161807 72 0.0 0.0 0.00 0.00 0.00 40 1016.7
20260831160807 72 0.0 0.0 0.00 0.00 0.00 40 1016.8
20260831155807 71 0.0 0.0 0.00 0.00 0.00 39 1016.9
20260831154807 72 0.0 0.0 0.00 0.00 0.00 40 1016.8
20260831152543 72 0.0 0.0 0.00 0.00 0.00 41 1016.9
20260831151543 72 0.0 0.0 0.00 0.00 0.00 39 1016.8
20260831150543 72 0.0 0.0 0.00 0.00 0.00 39 1016.9
20260831145543 72 0.0 0.0 0.00 0.00 0.00 42 1016.8
20260831144543 72 0.0 0.0 0.00 0.00 0.00 45 1016.8
20260831143543 72 0.0 0.0 0.00 0.00 0.00 43 1016.7
20260831142543 73 0.0 0.0 0.00 0.00 0.00 43 1016.8
20260831141547 72 0.0 0.0 0.00 0.00 0.00 47 1016.7
20260831140543 71 0.0 0.0 0.00 0.00 0.00 49 1016.7
20260831135543 71 0.0 0.0 0.00 0.00 0.00 49 1016.6
20260831133319 73 0.0 0.0 0.00 0.00 0.00 53 1016.7
20260831132319 72 0.0 0.0 0.00 0.00 0.00 53 1016.6
20260831131319 71 0.0 0.0 0.00 0.00 0.00 54 1016.7
20260831130319 73 0.0 0.0 0.00 0.00 0.00 52 1016.6
20260831125319 73 0.0 0.0 0.00 0.00 0.00 50 1016.7
20260831123056 72 0.0 0.0 0.00 0.00 0.00 52 1016.5
20260831122056 72 0.0 0.0 0.00 0.00 0.00 52 1016.6
20260831121055 71 0.0 0.0 0.00 0.00 0.00 53 1016.7
20260831120055 73 0.0 0.0 0.00 0.00 0.00 51 1016.6
20260831112608 72 0.0 0.0 0.00 0.00 0.00 55 1016.8
20260831111608 70 0.0 0.0 0.00 0.00 0.00 55 1016.9
20260831110608 72 0.0 0.0 0.00 0.00 0.00 55 1016.9
20260831105609 70 0.0 0.0 0.00 0.00 0.00 60 1016.8
20260831104614 69 0.0 0.0 0.00 0.00 0.00 58 1016.8
20260831103609 70 0.0 0.0 0.00 0.00 0.00 57 1016.9
20260831101345 71 0.0 0.0 0.00 0.00 0.00 57 1016.9
20260831100345 69 0.0 0.0 0.00 0.00 0.00 61 1017.0
20260831095345 68 0.0 0.0 0.00 0.00 0.00 63 1017.0
20260831093120 69 0.0 0.0 0.00 0.00 0.00 62 1016.9
20260831092121 69 0.0 0.0 0.00 0.00 0.00 60 1016.7
20260831091120 69 0.0 0.0 0.00 0.00 0.00 59 1016.9
20260831090120 70 0.0 0.0 0.00 0.00 0.00 60 1016.7
20260831085120 69 0.0 0.0 0.00 0.00 0.00 62 1016.5
20260831084120 69 0.0 0.0 0.00 0.00 0.00 63 1016.4
20260831083120 67 0.0 0.0 0.00 0.00 0.00 67 1016.3
20260831082120 66 0.0 0.0 0.00 0.00 0.00 69 1016.4
20260831081120 65 0.0 0.0 0.00 0.00 0.00 72 1016.4
20260831080120 64 0.0 0.0 0.00 0.00 0.00 73 1016.3
20260831075124 64 0.0 0.0 0.00 0.00 0.00 71 1016.4
20260831074120 64 0.0 0.0 0.00 0.00 0.00 69 1016.4
20260831073120 64 0.0 0.0 0.00 0.00 0.00 72 1016.0
20260831072120 63 0.0 0.0 0.00 0.00 0.00 72 1015.8
20260831071120 64 0.0 0.0 0.00 0.00 0.00 70 1015.6
20260831070120 65 0.0 0.0 0.00 0.00 0.00 67 1016.0
20260831061410 65 0.0 0.0 0.00 0.00 0.00 65 1015.5
20260831060410 65 0.0 0.0 0.00 0.00 0.00 65 1015.7
20260831054146 65 0.0 0.0 0.00 0.00 0.00 65 1016.0
20260831053145 65 0.0 0.0 0.00 0.00 0.00 64 1016.1
20260831052146 65 0.0 0.0 0.00 0.00 0.00 63 1016.2
20260831051146 65 0.0 0.0 0.00 0.00 0.00 62 1016.1
20260831050146 66 0.0 0.0 0.00 0.00 0.00 61 1015.7
20260831045145 67 0.0 0.0 0.00 0.00 0.00 59 1015.9
20260831044146 67 0.0 0.0 0.00 0.00 0.00 59 1015.8
20260831043146 67 0.0 0.0 0.00 0.00 0.00 58 1015.8
20260831042146 67 0.0 0.0 0.00 0.00 0.00 58 1015.8
20260831041146 66 0.0 0.0 0.00 0.00 0.00 61 1016.0
20260831034922 66 0.0 0.0 0.00 0.00 0.00 58 1016.4
20260831033922 67 0.0 0.0 0.00 0.00 0.00 57 1016.3
20260831031705 63 0.0 0.0 0.00 0.00 0.00 60 1016.3
20260831030659 66 0.0 0.0 0.00 0.00 0.00 55 1016.3
20260831024435 70 0.0 0.0 0.00 0.00 0.00 49 1016.6
20260831023435 70 0.0 0.0 0.00 0.00 0.00 48 1016.3
20260831022435 70 0.0 0.0 0.00 0.00 0.00 49 1016.3
20260831021435 71 0.0 0.0 0.00 0.00 0.00 48 1016.3
20260831020435 70 0.0 0.0 0.00 0.00 0.00 48 1016.1
20260831015435 69 0.0 0.0 0.00 0.00 0.00 50 1016.6
20260831013212 71 0.0 0.0 0.00 0.00 0.00 47 1016.5
20260831012212 70 0.0 0.0 0.00 0.00 0.00 48 1016.4
20260831011211 70 0.0 0.0 0.00 0.00 0.00 48 1016.6
20260831010212 70 0.0 0.0 0.00 0.00 0.00 48 1016.6
20260831003947 69 0.0 0.0 0.00 0.00 0.00 48 1016.8
20260831002947 69 0.0 0.0 0.00 0.00 0.00 48 1016.8
20260831001947 69 0.0 0.0 0.00 0.00 0.00 48 1016.9
20260831000948 69 0.0 0.0 0.00 0.00 0.00 49 1017.0
20260830235947 69 0.0 0.0 0.00 0.00 0.00 50 1017.1
20260830234947 68 0.0 0.0 0.00 0.00 0.00 51 1017.1
20260830233948 67 0.0 0.0 0.00 0.00 0.00 53 1017.2
20260830232947 66 0.0 0.0 0.00 0.00 0.00 54 1017.1
20260830231947 69 0.0 0.0 0.00 0.00 0.00 50 1017.2
20260830230947 70 0.0 0.0 0.00 0.00 0.00 47 1017.3